SCP
0 0 0 0 0 0 0 0 0 0 0 0 0 0 0 0 0 0 0 0 0 0 0 0 0 0 0 0 0 0 0 0 0 0 0 0 0 0 0 0 0 0 0 0
0 0 0 0 0 0 0 0 0 0 0 0 0 0 0 0 0 0 0 0 0 0 0 0 0 0 0 0 0 0 0 0 0 0 0 0 0 0 0 0 0 0 0 0
0 0 0 0 0 0 0 0 0 0 0 0 0 0 0 0 0 0 0 0 0 0 0 0 0 0 0 0 0 0 0 0 0 0 0 0 0 0 0 0 0 0 0 0
0 0 0 0 0 0 0 0 0 0 0 0 0 0 0 0 0 0 0 0 0 0 0 0 0 0 0 0 0 0 0 0 0 0 0 0 0 0 0 0 0 0 0 0
0 0 0 0 0 0 0 0 0 0 0 0 0 0 0 0 0 0 0 0 0 0 0 0 0 0 0 0 0 0 0 0 0 0 0 0 0 0 0 0 0 0 0 0
0 0 0 0 0 0 0 0 0 0 0 0 0 0 0 0 0 0 0 0 0 0 0 0 0 0 0 0 0 0 0 0 0 0 0 0 0 0 0 0 0 0 0 0
0 0 0 0 0 0 0 0 0 0 0 0 0 0 0 0 0 0 0 0 0 0 0 0 0 0 0 0 0 0 0 0 0 0 0 0 0 0 0 0 0 0 0 0
0 0 0 0 0 0 -0 -0 0 0 0 0 0 0 0 0 0 0 0 0 0 0 0 0 0 0 0 0 0 0 0 0 0 0 0 0 0 0 0 0 0 0 0 0
0 0 0 0 0 -0 -0 -0 0 0 0 0 0 0 0 0 0 0 0 0 0 0 0 0 0 0 0 0 0 0 0 0 0 0 0 0 0 0 0 0 0 0 0 0
0 0 0 0 0 0 0 0 0 0 0 0 0 0 0 0 0 0 0 0 0 0 0 0 0 0 0 0 0 0 0 0 0 0 0 0 0 0 0 0 0 0 0 0
0 0 0 0 0 0 0 0 0 0 0 0 0 0 0 0 0 0 0 0 0 0 0 0 0 0 0 0 0 0 0 0 0 0 0 0 0 0 0 0 0 0 0 0
0 0 0 0 0 0 0 0 0 0 0 0 0 0 0 0 0 0 0 0 0 0 0 0 0 0 0 0 0 0 0 0 0 0 0 0 0 0 0 0 0 0 0 0
0 0 0 0 0 0 0 0 0 0 0 0 0 0 0 0 0 0 0 0 0 0 0 0 0 0 0 0 0 0 0 0 0 0 0 0 0 0 0 0 0 0 0 0
0 0 0 0 0 0 0 0 0 0 0 0 0 0 0 0 0 0 0 0 0 0 0 0 0 0 0 0 0 0 0 0 0 0 0 0 0 0 0 0 0 0 0 0
0 0 0 0 0 0 0 0 0 0 0 0 0 0 0 0 0 0 0 0 0 0 0 0 0 0 0 0 0 0 0 0 0 0 0 0 0 0 0 0 0 0 0 0
0 0 0 0 0 0 0 0 0 0 0 0 0 0 0 0 0 0 0 0 0 0 0 0 0 0 0 0 0 0 0 0 0 0 0 0 0 0 0 0 0 0 0 0
0 0 0 0 0 0 0 0 0 0 0 0 0 0 0 0 0 0 0 0 0 0 0 0 0 0 0 0 0 0 0 0 0 0 0 0 0 0 0 0 0 0 0 0
0 0 0 0 0 0 0 0 0 0 0 0 0 0 0 0 0 0 0 0 0 0 0 0 0 0 0 0 0 0 0 0 0 0 0 0 0 0 0 0 0 0 0 0
0 0 0 0 0 0 0 0 0 0 0 0 0 0 0 0 0 0 0 0 0 0 0 0 0 0 0 0 0 0 0 0 0 0 0 0 0 0 0 0 0 0 0 0
0 0 0 0 0 0 0 0 0 0 0 0 0 0 0 0 0 0 0 0 0 0 0 0 0 0 0 0 0 0 0 0 0 0 0 0 0 0 0 0 0 0 0 0
0 0 0 0 0 0 0 0 0 0 0 0 0 0 0 0 0 0 0 0 0 0 0 0 0 0 0 0 0 0 0 0 0 0 0 0 0 0 0 0 0 0 0 0
0 0 0 0 0 0 0 0 0 0 0 0 0 0 0 0 0 0 0 0 0 0 0 0 0 0 0 0 0 0 0 0 0 0 0 0 0 0 0 0 0 0 0 0
0 0 0 0 0 0 0 0 0 0 0 0 0 0 0 0 0 0 0 0 0 0 0 0 0 0 0 0 0 0 0 0 0 0 0 0 0 0 0 0 0 0 0 0
0 0 0 0 0 0 0 0 0 0 0 0 0 0 0 0 0 0 0 0 0 0 0 0 0 0 0 0 0 0 0 0 0 0 0 0 0 0 0 0 0 0 0 0
0 0 0 0 0 0 0 0 0 0 0 0 0 0 0 0 0 0 0 0 0 0 0 0 0 0 0 0 0 0 0 0 0 0 0 0 0 0 0 0 0 0 0 0
0 0 0 0 0 0 0 0 0 0 0 0 0 0 0 0 0 0 0 0 0 0 0 0 0 0 0 0 0 0 0 0 0 0 0 0 0 0 0 0 0 0 0 0
Wind_Speed
4 4 4 6 7 6 6 4 3 5 5 6 7 8 8 7 6 6 5 5 6 6 5 5 5 5 5 3 3 2 2 2 2 2 2 2 3 3 3 3 4 4 4 3
3 3 6 6 5 5 4 2 2 3 4 6 5 6 6 7 8 8 7 7 7 6 4 4 4 4 4 3 3 3 2 2 1 1 1 1 2 2 3 3 4 4 4 4
6 4 6 5 4 5 3 4 4 4 2 1 1 4 2 2 3 4 5 7 8 10 8 6 5 4 4 3 3 3 2 1 1 1 1 2 2 3 3 4 4 4 4 4
2 3 5 5 3 5 3 6 5 3 2 3 2 1 4 2 3 4 5 6 7 7 7 6 6 5 4 3 3 3 2 0 1 1 2 2 2 2 3 3 3 5 4 4
2 3 5 4 5 7 7 5 2 0 1 2 1 3 5 1 3 5 5 6 7 7 8 7 7 6 5 4 3 2 1 0 2 2 1 1 2 2 3 3 5 5 4 5
1 2 4 5 3 3 2 4 6 6 5 2 4 5 5 5 7 5 5 5 7 7 7 6 5 5 4 3 2 2 1 1 2 2 2 1 2 3 4 4 5 4 4 4
2 2 1 3 2 2 5 6 5 5 4 5 2 3 7 6 5 7 7 7 7 7 7 6 6 5 4 3 3 2 1 1 2 2 2 2 2 2 3 4 4 4 3 3
2 3 3 3 5 4 3 8 7 4 4 5 3 2 5 2 3 5 6 7 7 7 6 7 7 6 5 4 4 3 2 2 2 1 2 2 2 1 2 3 3 3 3 4
4 3 2 2 3 5 4 3 6 6 1 1 3 2 3 0 2 3 5 6 7 7 7 7 6 6 5 5 4 4 3 2 1 1 1 2 2 2 3 4 3 3 4 4
6 2 2 1 2 1 5 6 5 4 2 1 3 3 5 7 7 6 6 7 7 6 6 6 6 6 5 5 4 3 3 3 2 1 1 1 3 3 3 3 4 4 4 4
3 4 1 1 2 4 1 2 5 4 5 5 2 7 7 10 9 8 8 8 8 8 7 7 6 5 5 4 3 3 3 2 2 2 1 2 2 3 3 3 3 4 4 4
3 5 1 4 5 4 5 5 6 4 2 4 3 8 6 7 7 7 8 7 7 8 7 7 6 5 4 4 3 3 3 3 3 2 1 1 2 2 3 3 4 4 4 4
4 6 3 5 6 3 1 4 5 6 5 4 4 7 4 3 4 5 6 6 6 7 6 6 5 5 5 5 4 4 4 4 3 2 1 1 2 2 3 3 3 4 3 4
6 5 6 7 7 4 4 4 5 6 4 4 6 6 3 5 6 6 6 7 7 7 7 6 6 5 5 5 5 4 4 4 3 2 1 1 1 2 2 2 3 3 3 3
5 3 4 6 6 5 6 7 7 7 8 8 7 6 7 8 9 8 7 6 6 6 6 7 7 6 5 5 4 5 4 4 3 3 2 2 2 1 1 2 3 3 3 4
4 3 1 3 4 4 4 7 9 8 7 7 5 6 7 5 5 5 7 8 7 7 8 8 7 7 6 6 5 5 4 4 3 3 3 3 2 1 1 2 2 3 3 4
3 4 2 4 5 2 6 9 10 8 7 9 9 9 5 5 7 9 8 8 8 8 7 8 8 7 7 7 6 6 5 4 4 4 3 2 2 2 2 2 2 2 3 3
7 5 3 1 2 5 11 6 8 9 8 8 7 7 9 9 8 6 7 9 8 7 7 7 6 6 6 5 5 5 4 4 4 3 3 3 2 2 2 2 2 3 2 3
6 7 4 3 2 7 9 5 6 7 6 7 8 7 6 5 4 2 3 6 7 7 6 6 6 6 5 6 5 5 4 3 3 3 4 4 3 3 2 2 3 3 2 3
4 5 6 4 2 6 9 7 2 5 4 5 8 8 7 8 4 5 4 4 5 5 5 5 5 4 5 4 5 5 4 3 4 5 5 4 4 3 3 4 3 2 2 3
2 2 4 4 4 9 10 4 4 4 9 5 7 8 9 9 8 6 6 5 5 5 4 5 5 4 3 4 5 5 4 4 5 4 3 3 4 4 4 3 3 2 2 2
8 6 5 5 4 11 7 4 7 10 4 3 6 7 8 6 5 7 7 7 6 5 5 5 5 4 3 4 5 4 2 3 3 3 3 3 3 3 2 3 3 3 2 2
7 10 8 11 11 9 6 8 7 6 5 5 6 7 9 8 7 8 7 7 6 6 5 5 6 4 2 3 4 4 3 2 2 2 2 3 3 2 2 2 3 2 2 2
5 2 3 4 8 7 6 5 4 6 7 7 7 8 9 9 9 8 7 7 6 5 5 5 6 5 2 1 2 2 1 1 2 1 2 2 2 3 3 2 2 2 2 2
6 1 1 5 6 4 5 6 6 5 5 6 6 7 9 10 9 8 8 7 7 5 4 5 5 5 3 2 1 0 0 2 2 1 1 2 2 2 3 2 2 3 3 3
6 6 5 7 8 6 9 9 7 7 7 8 8 6 6 9 9 8 7 6 6 6 5 5 5 5 3 2 1 1 1 2 2 1 1 1 1 2 2 2 3 3 3 3
Wind_Direction
159 121 178 195 185 174 165 172 231 240 205 180 220 240 236 210 198 191 190 177 170 174 170 156 144 133 117 103 88 67 58 21 17 2 349 338 329 323 328 327 326 322 321 322
78 193 202 171 160 134 138 151 242 268 216 191 227 252 241 200 198 187 178 170 164 153 149 148 141 130 123 118 94 76 71 44 21 329 281 267 282 292 295 310 323 319 321 320
162 205 168 152 145 135 162 182 208 229 285 278 164 338 300 217 176 168 168 163 161 161 162 160 147 139 133 127 117 107 113 89 20 357 346 342 344 334 334 328 322 317 319 320
187 219 146 140 168 153 205 214 207 205 88 293 142 249 283 227 171 182 181 166 164 159 158 158 152 146 149 158 145 127 131 115 333 2 12 356 339 320 299 299 304 312 317 318
201 176 150 170 195 173 205 212 196 109 96 331 338 145 278 188 200 218 205 183 171 166 162 163 160 157 163 166 155 149 133 319 325 350 4 2 329 297 299 309 320 321 317 315
220 211 174 186 199 178 149 49 34 45 64 321 246 152 237 219 209 201 198 181 174 169 165 161 159 154 161 165 153 151 145 281 315 339 352 352 319 319 327 326 327 323 316 315
2 328 238 144 96 16 80 77 32 4 12 261 255 148 233 234 200 178 178 183 183 175 165 162 162 167 174 176 177 177 180 263 302 329 338 327 300 302 309 308 312 316 317 313
124 277 241 179 165 176 162 134 152 188 223 279 338 206 255 247 181 165 167 176 178 180 177 175 177 178 184 187 188 190 196 240 291 314 308 310 302 291 295 301 301 303 298 292
157 244 274 198 164 145 135 157 171 141 189 281 311 331 325 282 185 181 184 180 187 189 185 181 181 182 186 190 199 197 190 213 268 284 288 301 307 307 305 308 308 303 303 307
147 169 262 256 72 58 147 149 99 109 138 300 305 239 227 221 224 219 208 200 201 194 186 183 184 189 193 198 202 188 179 188 221 256 278 302 306 308 311 322 326 324 323 330
132 138 306 28 199 208 151 121 109 118 150 153 233 262 226 202 205 205 210 204 197 191 188 188 193 196 193 190 183 179 181 187 218 245 285 333 319 319 331 339 329 326 331 340
144 118 178 264 282 203 171 172 142 145 214 164 178 263 262 198 200 194 201 201 195 188 186 187 188 185 186 190 188 187 191 200 221 235 268 315 316 332 347 340 330 334 338 341
123 107 78 349 337 344 192 175 151 133 124 153 172 262 293 199 205 203 192 192 188 185 185 184 183 187 194 197 197 195 196 207 219 217 231 325 330 336 337 333 333 340 342 342
113 118 156 190 217 214 231 222 165 131 154 203 214 240 255 214 214 216 204 193 186 189 186 185 193 202 204 201 197 197 207 210 204 193 196 259 286 297 308 322 338 340 340 342
109 150 209 227 234 210 213 220 197 180 185 187 222 220 229 219 208 206 197 190 186 192 193 193 196 202 204 202 201 201 210 211 196 182 202 232 246 265 304 323 332 336 342 343
109 153 248 287 265 239 237 226 209 207 200 205 216 243 238 207 176 182 186 184 189 196 197 196 194 194 199 199 198 200 209 210 191 189 213 228 234 254 286 301 319 334 338 340
143 146 138 273 292 350 267 228 206 206 203 186 209 226 202 178 190 193 192 189 193 198 196 191 192 196 198 198 191 194 203 197 187 200 218 223 225 242 271 293 319 320 319 331
147 137 140 235 15 239 247 244 200 202 219 200 198 200 188 194 198 197 186 182 193 192 186 188 190 194 197 193 190 189 183 178 186 202 214 219 217 238 265 289 295 297 302 308
148 139 131 137 226 277 288 269 182 177 239 212 190 190 182 143 88 353 214 181 184 184 179 182 183 180 178 182 181 168 170 174 187 208 218 221 214 223 243 262 272 274 286 298
85 105 122 132 186 251 257 270 186 112 267 243 180 174 159 129 139 237 218 157 151 151 156 161 158 148 159 179 161 153 168 181 210 220 222 220 211 212 229 245 255 258 258 274
125 93 139 167 213 263 257 264 96 140 237 237 179 169 160 174 192 191 161 145 141 142 147 141 134 135 162 161 142 146 163 206 226 218 213 217 219 220 229 244 251 257 268 290
183 175 187 157 191 254 247 157 180 213 223 176 165 165 163 169 155 149 153 151 146 140 137 134 128 134 145 137 132 138 191 234 219 196 204 225 236 241 235 239 263 267 267 286
200 193 187 186 210 232 216 202 210 178 174 179 168 170 153 150 160 162 162 159 158 154 150 142 139 137 134 138 135 148 223 225 189 187 224 247 261 260 255 241 259 274 265 259
269 186 163 245 264 258 244 223 198 185 183 181 170 163 157 161 167 167 165 165 165 162 159 148 137 138 151 160 143 176 222 189 160 194 250 268 278 283 281 267 254 252 259 255
246 221 211 257 276 303 289 244 215 193 171 163 165 168 166 159 164 168 168 170 169 164 157 146 146 148 151 134 112 45 78 135 145 202 291 299 290 286 291 282 256 243 242 216
221 201 202 238 238 214 241 239 213 190 188 180 168 165 168 163 163 161 165 168 161 156 149 143 142 140 138 121 90 8 27 119 125 92 341 318 314 312 308 309 317 292 263 287